TimePDT,TemperatureF,Dew PointF,Humidity,Sea Level PressureIn,VisibilityMPH,Wind Direction,Wind SpeedMPH,Gust SpeedMPH,PrecipitationIn,Events,Conditions,WindDirDegrees,DateUTC
12:50 AM,89.1,48.9,25,29.79,10.0,WSW,15.0,-,N/A,,Clear,250,2013-07-25 07:50:00
1:50 AM,84.9,50.0,30,29.80,10.0,West,11.5,-,N/A,,Clear,260,2013-07-25 08:50:00
2:50 AM,84.0,50.0,31,29.79,10.0,West,10.4,-,N/A,,Clear,280,2013-07-25 09:50:00
3:50 AM,82.9,50.0,32,29.79,10.0,West,13.8,-,N/A,,Clear,280,2013-07-25 10:50:00
4:50 AM,81.0,50.0,34,29.81,10.0,West,9.2,-,N/A,,Clear,270,2013-07-25 11:50:00
5:50 AM,80.1,48.9,34,29.83,10.0,West,12.7,-,N/A,,Clear,280,2013-07-25 12:50:00
6:50 AM,80.1,48.9,34,29.83,10.0,West,9.2,-,N/A,,Clear,280,2013-07-25 13:50:00
7:50 AM,84.9,48.9,29,29.85,10.0,WNW,12.7,-,N/A,,Clear,290,2013-07-25 14:50:00
8:50 AM,91.0,48.9,23,29.86,10.0,WNW,13.8,-,N/A,,Clear,290,2013-07-25 15:50:00
9:50 AM,95.0,48.0,20,29.85,10.0,WNW,13.8,-,N/A,,Clear,290,2013-07-25 16:50:00
10:50 AM,99.0,48.0,18,29.85,10.0,West,15.0,-,N/A,,Clear,270,2013-07-25 17:50:00
11:50 AM,102.0,46.9,16,29.84,10.0,NW,10.4,18.4,N/A,,Clear,320,2013-07-25 18:50:00
12:50 PM,102.0,45.0,14,29.83,10.0,NW,8.1,-,N/A,,Clear,320,2013-07-25 19:50:00
1:50 PM,104.0,46.0,14,29.82,10.0,NNE,5.8,-,N/A,,Clear,20,2013-07-25 20:50:00
2:50 PM,106.0,46.0,13,29.79,10.0,East,4.6,-,N/A,,Clear,80,2013-07-25 21:50:00
3:50 PM,108.0,46.9,13,29.76,10.0,North,11.5,-,N/A,,Clear,360,2013-07-25 22:50:00
4:50 PM,109.0,46.9,13,29.74,10.0,WNW,9.2,17.3,N/A,,Clear,300,2013-07-25 23:50:00
5:50 PM,107.1,48.9,14,29.75,10.0,WSW,20.7,28.8,N/A,,Clear,250,2013-07-26 00:50:00
6:50 PM,106.0,48.0,14,29.77,10.0,West,16.1,-,N/A,,Clear,260,2013-07-26 01:50:00
7:50 PM,100.0,45.0,15,29.80,10.0,SW,23.0,-,N/A,,Clear,230,2013-07-26 02:50:00
8:50 PM,98.1,39.9,13,29.82,10.0,SW,19.6,-,N/A,,Clear,230,2013-07-26 03:50:00
9:50 PM,95.0,39.0,14,29.86,10.0,SSW,18.4,-,N/A,,Clear,210,2013-07-26 04:50:00
10:50 PM,95.0,42.1,16,29.89,10.0,SW,11.5,-,N/A,,Clear,220,2013-07-26 05:50:00
11:50 PM,93.9,44.1,18,29.91,10.0,South,5.8,-,N/A,,Clear,190,2013-07-26 06:50:00